Back to catalog

STARLINK-3854

AliveCommunicationsVLEO
NORAD 52648·PAYLOAD·🇺🇸 United States

Launched May 14, 2022 from Cape Canaveral Space Force Station

Loading…

Next Passes (next 24 hours)

TLE

FreshSource: CelesTrak SupGP

Epoch: Sep 14, 2026, 20:57 UTC

1 52648C 22052BC  26257.87340278 -.00022087  00000+0 -67030-3 0  2573
2 52648  53.1572 118.2077 0001408  88.6943   8.6923 15.33554851    16

Track STARLINK-3854 in real time with AllMySat

Download on the App Store